This demonstration page uses our WeatherBlox Daily Observations layout. Learn more.

Left ArrowRight Arrow

Hourly Observations for September 4, 2015

Temp ( °F °C ) Dew Point ( °F °C ) Humidity (%) Winds ( mph kmh ) Pressure ( in mb ) Visibility ( mi km ) Precip ( " mm )
12:53 am 00:53 Clear 69 20.6 67 19.4 93 93 Calm 29.96 1015 7 11.26538 0 0
1:53 am 01:53 Clear with Mist and Fog 68 20 67 19.4 96 96 Calm 29.96 1015 5 8.0467 0 0
2:53 am 02:53 Clear with Mist and Fog 68 20 66 18.9 93 93 Calm 29.97 1015 5 8.0467 0 0
3:53 am 03:53 Clear with Mist and Fog 69 20.6 67 19.4 93 93 WNW 3 6 29.98 1015 5 8.0467 0 0
4:53 am 04:53 Mostly Clear with Mist and Fog 68 20 66 18.9 93 93 Calm 29.98 1015 4 6.43736 0 0
5:32 am 05:32 Clear with Mist and Fog 67 19.4 66 18.9 97 97 Calm 30 1016 2.5 4.02335 0 0
5:39 am 05:39 Clear with Mist and Fog 67 19.4 66 18.9 97 97 Calm 30 1016 4 6.43736 0 0
5:53 am 05:53 Partly Cloudy with Mist and Fog 68 20 66 18.9 93 93 Calm 30 1016 4 6.43736 0 0
6:53 am 06:53 Clear with Mist and Fog 67 19.4 66 18.9 97 97 Calm 30 1016 2.5 4.02335 0 0
7:21 am 07:21 Sunny with Mist and Fog 66 18.9 65 18.3 96 96 Calm 30.03 1017 1.5 2.41401 0 0
7:34 am 07:34 Sunny with Mist and Fog 66 18.9 65 18.3 96 96 Calm 30.03 1017 1.75 2.816345 0 0
7:46 am 07:46 Sunny with Mist and Fog 68 20 66 18.9 93 93 Calm 30.03 1017 2.5 4.02335 0 0
7:53 am 07:53 Sunny with Mist and Fog 68 20 67 19.4 96 96 Calm 30.03 1017 2.5 4.02335 0 0
8:22 am 08:22 Sunny with Mist and Fog 71 21.7 69 20.6 94 94 Calm 30.06 1018 3 4.82802 0 0
8:53 am 08:53 Sunny with Mist and Fog 74 23.3 70 21.1 88 88 Calm 30.04 1017 4 6.43736 0 0
9:53 am 09:53 Partly Cloudy 81 27.2 70 21.1 69 69 Calm 30.04 1017 7 11.26538 0 0
10:53 am 10:53 Sunny 84 28.9 69 20.6 61 61 VRB 3 6 30.04 1017 9 14.48406 0 0
11:53 am 11:53 Sunny 88 31.1 69 20.6 54 54 VRB 3 6 30.04 1017 10 16.0934 0 0
12:53 pm 12:53 Sunny 91 32.8 67 19.4 45 45 SW 6 9 30.04 1017 10 16.0934 0 0
1:53 pm 13:53 Partly Cloudy 93 33.9 67 19.4 42 42 VRB 5 7 30.02 1017 10 16.0934 0 0
2:53 pm 14:53 Sunny 93 33.9 67 19.4 42 42 VRB 3 6 30.01 1016 10 16.0934 0 0
3:53 pm 15:53 Sunny 93 33.9 66 18.9 41 41 VRB 7 11 30 1016 10 16.0934 0 0
4:53 pm 16:53 Mostly Sunny 94 34.4 67 19.4 41 41 VRB 5 7 29.98 1015 10 16.0934 0 0
5:23 pm 17:23 Sunny with Nearby Thunderstorms 94 34.4 67 19.4 41 41 W 7 11 29.97 1015 10 16.0934 0 0
5:53 pm 17:53 Partly Cloudy with Thunderstorms 82 27.8 64 17.8 55 55 NE 16 26 30.04 1017 10 16.0934 0 0
6:00 pm 18:00 Mostly Cloudy with Thunderstorms 81 27.2 64 17.8 57 57 NE 16 26 30.06 1018 10 16.0934 0 0
6:46 pm 18:46 Mostly Cloudy with Nearby Thunderstorms 74 23.3 69 20.6 85 85 E 6 9 30.06 1018 9 14.48406 0.04 1.016
6:53 pm 18:53 Mostly Cloudy with Nearby Thunderstorms 74 23.3 70 21.1 88 88 WNW 9 15 30.06 1018 10 16.0934 0.04 1.016
7:20 pm 19:20 Cloudy with Rain 72 22.2 70 21.1 94 94 VRB 5 7 30.06 1018 2.5 4.02335 0.08 2.032
7:29 pm 19:29 Mostly Cloudy with Light Rain 72 22.2 70 21.1 94 94 VRB 6 9 30.09 1019 6 9.65604 0.08 2.032
7:46 pm 19:46 Mostly Cloudy with Nearby Thunderstorms 74 23.3 67 19.4 79 79 N 14 22 30.12 1020 10 16.0934 0.09 2.286
7:53 pm 19:53 Cloudy with Nearby Thunderstorms 73 22.8 66 18.9 79 79 NE 14 22 30.13 1020 7 11.26538 0.13 3.302
8:53 pm 20:53 Mostly Cloudy with Nearby Thunderstorms 69 20.6 67 19.4 93 93 SSW 3 6 30.13 1020 8 12.87472 0.14 3.556
9:53 pm 21:53 Mostly Cloudy with Light Rain 70 21.1 66 18.9 87 87 ENE 3 6 30.09 1019 10 16.0934 0.1 2.54
10:53 pm 22:53 Clear 69 20.6 66 18.9 90 90 VRB 3 6 30.09 1019 10 16.0934 0.01 0.254
11:53 pm 23:53 Clear 67 19.4 66 18.9 97 97 SSW 3 6 30.09 1019 8 12.87472 0 0

Powered by AerisWeather